TimeCDT,TemperatureF,Dew PointF,Humidity,Sea Level PressureIn,VisibilityMPH,Wind Direction,Wind SpeedMPH,Gust SpeedMPH,PrecipitationIn,Events,Conditions,WindDirDegrees,DateUTC
12:53 AM,55.9,44.1,64,29.78,10.0,WSW,9.2,-,N/A,,Overcast,250,2013-10-06 05:53:00
1:53 AM,54.0,44.1,69,29.77,10.0,Variable,3.5,-,N/A,,Overcast,0,2013-10-06 06:53:00
2:53 AM,52.0,44.1,74,29.74,10.0,WNW,4.6,-,N/A,,Mostly Cloudy,300,2013-10-06 07:53:00
3:53 AM,51.1,43.0,74,29.75,10.0,Calm,Calm,-,N/A,,Partly Cloudy,0,2013-10-06 08:53:00
4:53 AM,46.0,44.1,93,29.74,10.0,Calm,Calm,-,N/A,,Clear,0,2013-10-06 09:53:00
5:53 AM,46.9,44.1,90,29.75,10.0,WSW,3.5,-,N/A,,Clear,240,2013-10-06 10:53:00
6:53 AM,44.1,43.0,96,29.75,10.0,Calm,Calm,-,N/A,,Partly Cloudy,0,2013-10-06 11:53:00
7:53 AM,46.9,42.1,83,29.75,10.0,Calm,Calm,-,N/A,,Partly Cloudy,0,2013-10-06 12:53:00
8:53 AM,51.1,42.1,71,29.73,10.0,South,4.6,-,N/A,,Clear,180,2013-10-06 13:53:00
9:53 AM,54.0,39.9,59,29.73,10.0,Calm,Calm,-,N/A,,Partly Cloudy,0,2013-10-06 14:53:00
10:53 AM,55.0,37.9,53,29.72,10.0,SW,4.6,-,N/A,,Partly Cloudy,230,2013-10-06 15:53:00
11:53 AM,55.0,39.9,57,29.72,10.0,SSW,5.8,-,N/A,,Overcast,200,2013-10-06 16:53:00
12:53 PM,55.9,37.0,49,29.70,10.0,SSW,6.9,-,N/A,,Mostly Cloudy,200,2013-10-06 17:53:00
1:53 PM,57.0,39.0,51,29.69,10.0,South,6.9,-,N/A,,Mostly Cloudy,180,2013-10-06 18:53:00
2:53 PM,55.0,37.9,53,29.70,10.0,Variable,4.6,-,N/A,,Overcast,0,2013-10-06 19:53:00
3:53 PM,54.0,37.9,55,29.68,10.0,Variable,4.6,-,N/A,,Overcast,0,2013-10-06 20:53:00
4:53 PM,54.0,39.0,57,29.70,10.0,Calm,Calm,-,N/A,,Overcast,0,2013-10-06 21:53:00
5:53 PM,53.1,39.0,59,29.72,10.0,SW,5.8,-,N/A,,Overcast,220,2013-10-06 22:53:00
6:53 PM,48.9,43.0,80,29.75,10.0,SW,8.1,18.4,0.00,Rain,Light Rain,220,2013-10-06 23:53:00
7:53 PM,48.0,42.1,80,29.76,10.0,Variable,5.8,-,0.00,Rain,Light Rain,0,2013-10-07 00:53:00
8:53 PM,48.0,43.0,83,29.76,10.0,Variable,3.5,-,0.01,Rain,Light Rain,0,2013-10-07 01:53:00
9:53 PM,46.0,42.1,86,29.76,10.0,WNW,5.8,-,0.00,Rain,Light Rain,290,2013-10-07 02:53:00
10:53 PM,46.0,43.0,89,29.75,10.0,WNW,4.6,-,0.02,Rain,Light Rain,290,2013-10-07 03:53:00
11:53 PM,46.9,43.0,86,29.73,10.0,WNW,3.5,-,0.00,,Overcast,290,2013-10-07 04:53:00